Location: Clermont
(50.2608°N, 4.3172°E)
Time: 02:03:54
(UTC+00:00)

Cosmos 1674 Rocket - Pass Details

Date: 13 August 2020
Orbit: 604 x 629 km, 82.5° (Epoch: 25 September)

Event Time Altitude Azimuth Distance (km) Brightness Sun altitude
Rises 22:11:14 0° 350° (N) 2,876 8.3 -22.1°
Reaches altitude 10° 22:13:27 10° 352° (N) 1,969 7.2 -22.2°
Maximum altitude 22:17:49 77° 80° (E) 632 3.4 -22.5°
Enters shadow 22:18:07 72° 123° (ESE) 644 3.4 -22.5°
